Aéroclub Castres-Mazamet
ACCUEIL




METAR
LFCK 170400Z AUTO 09001KT 9999 4500 NSC 13/11 Q1018



Liens utiles
F.F.A
Météo France
OLIVIA
SIA
D.G.A.C
Bienvenue à l'aéroclub de Castres-Mazamet


               





Actualités

 Assemblée Générale   
Publié le 06-Jan-2019    
L'AG du club aura lieu le vendredi 15 février 2019


Voir plus